星链-5692 (STARLINK-5692 )

导读 | 星芒AI

STARLINK-5692 是 SpaceX Starlink 卫星互联网项目中的一颗低轨卫星,属于第 14 批组网发射的“星链”卫星之一。该卫星于 2022 年发射,运行在约 550 公里的近地轨道,旨在为全球提供高速、低延迟的宽带互联网服务。作为 Starlink 网络的重要组成部分,它支持偏远地区的网络接入,并增强整体系统的冗余与覆盖能力。该卫星采用可再生太阳能供电,具备自动避障功能,有助于减少太空碎片风险。

基本信息
目录编号:
55483
目录名称:
STARLINK-5692
国际标识:
2023-015AL
轨道中心:
EARTH
卫星名称:
星链-5692
卫星全名:
星链-5692 (STARLINK-5692 )
卫星状态:
在轨 (已飞行1006 天)
发射日期:
2023-02-02 UTC
国别 :
美国 (US)
星等 :
--
轨道信息
数据来源 国际轨道数据
星历时间: 2025-11-04T01:08:16+0800
19小时前
查看轨道信息
半长轴: 6937.204km
偏心率: 0.0001193
轨道倾角: 43.006°
近地点辐角 264.191°
升交点赤经 303.527°
平近点角 95.879°
近地点: 558.241km
远地点: 559.897km
周期: 95.838分钟
每日圈数: 15.025403
详细信息
固有亮度:
5
最大亮度:
2.5
卫星平台:
Starlink v1.5
覆盖范围:
全球
运营商:
太空探索技术公司
运营商所在国:
美国
制造商(研发单位):
太空探索技术公司
制造商所在国:
美国
使用方式:
暂无
卫星简介
星链(Starlink)计划是由太空探索技术公司(SpaceX)提出的一个巨型低轨卫星互联网星座项目,计划在2019年至2024年间在太空搭建由约1.2万颗卫星组成的“星链”网络,其中1584颗将部署在地球上空550千米处的近地轨道,并从2020年开始工作。该卫星仍在工作。
2D轨道图
3D轨道图
轨道高度分析图
轨道倾角分析图
轨道综合分析图
查看轨道综合分析图